Погода Звериноголовская

Погода Звериноголовская : погода сейчас, прогноз погоды и архив. Всё, что Вы хотите узнать о погоде Звериноголовская!

Поиск расширенной информации на нашем сайте:

Полезная информация: Эфко отзывы стоит работать в эфко.

Другие новости

Новости СМИ2

Главная страница сайта

Новости сайта

02.10.2013

Напоминаем, что на нашем новом сайте вы можете получить высокодетализированные прогнозы погоды по пунктам России, СНГ и мира (включающие важные для авиации метеовеличины, такие как направление и скорость ветра, видимость, явления погоды, количество и форма облачности, нижняя и верхняя граница облачности), а также ознакомиться с разнообразными материалами по авиационной метеорологии и подборкой полезных ссылок на эту тему.

Сайт Метеоцентр.Азия посвящён разработке технологий оптимизации авиаметеорологического обслуживания, включая проектирование и перспективное создание нескольких автоматизированных авиаметеорологических систем:
- система выпуска высокодетальных прогностических карт явлений погоды для нижнего воздушного пространства по России и ближнему зарубежью;
- система верификации прогнозов TAF (выпускаемых синоптиками официальных АМСГ РФ и ближнего зарубежья) и AUTOTAF (выпускаемых сайтом Метеоцентр.Азия) - выявление ошибок, онлайн-сопоставление с фактической погодой METAR, автоматическое внесение коррективов в прогнозы при резком отклонении фактической погоды от прогноза, подсчёт оправдываемости прогнозов по элементам и в целом;
- система обработки, анализа и отображения авиаметеорологической информации для применения провайдерами метеорологической информации.

Рекомендуем: Подробности любимый форум тут.

Погода Звериноголовская - сегодня

Время (UTC), дата Ветер
(°,м/с) 
Видим.   Явления Облачность Т
(°С)
Тd
(°С)
f(%) Тe
(°С)
Pmin
(гПа)
dP
(гПа)
Po
(мм)
O2
(г/м3)
Тmin Tmax R s Состояние
почвы
21 20.05.17 180 (Ю) 10 км    ясно 
+10.8 +2.5 56 +11  1012.5  -0.8  749  290           
00 21.05.17 180 (Ю) 20000 м    ясно 
+11 +1.4 52 +11  1011.6  -0.9  748  290           
06 21.05.17 210 (ЮЗ) 20000 м    8/0 верхняя 
[Cs]
+25.7 +0.8 20 +26  1008.5  -1.2  746  275           
09 21.05.17 220 (ЮЗ) 3{11}  20000 м    9/0 верхняя 
[Cs]
+25.7 +0.5 19 +26  1006.8  -1.7  745  274           
12 21.05.17 210 (ЮЗ) 3{10}  20000 м    10/8 1000 м средняя 
[Sc|Ac As]
+24.2 +1.9 23 +24  1004.6  -2.2  743  275           
18 21.05.17 140 (ЮВ) 10 км  в посл. час дождь  8/3 600 м средняя, верхняя 
[Sc|Ac trans|Cs]
+15.1 +12.6 85 +20  1001.8  -2.9  741  280           
00 22.05.17 200 (Ю) 6-10{12}  20000 м  {гроза, ливн. осадки}  3/0 средняя, верхняя 
[Ac lent|Cs]
+17.4 +4.4 42 +17  995.4  -3.4  736  278           
06 22.05.17 240 (ЮЗ) 4-10{10}  20000 м    5/3 600 м верхняя 
[Cu Sc|Cs]
+24.5 +13.1 49 +30  996.5  0.4  737  270           
12 22.05.17 250 (З) 2{10}  20000 м    8/4 600 м верхняя 
[Cu Sc|Cs]
+27.4 +7.3 28 +27  997.2  0.3  738  269           
18 22.05.17 040 (СВ) 10 км  в посл. час дождь  10/10 600 м 
[Sc]
+15.5 +9.1 66 +15  999.7  0.7  740  280           
21 22.05.17 030 (СВ) 4000 м  слаб. дождь  10/10 600 м 
[Sc]
+11.9 +10.2 89 +13  998.7  -1.1  739  283           
00 23.05.17 020 (С) 5{10}  20000 м  {дождь}  10/10 600 м 
[Sc]
+8.7 +7.4 92 +7  996.1  -2.6  737  286           
06 23.05.17 020 (С) 6{12}  20000 м  в посл. час дождь  10/10 600 м 
[Sc]
+8.4 +6.7 89 +7  993.5  0.1  735  286           
12 23.05.17 340 (С) 6-12{12}  20000 м  {дождь}  10/10 600 м 
[Sc]
+6.2 +3.7 84 +4  1001.4  4.1  740  291           
18 23.05.17 330 (СЗ) 4000 м  слаб. дождь  10/10 600 м 
[Sc]
+4.6 +2 83 +3  1006.5  1.2  744  295           
21 23.05.17 320 (СЗ) 4000 м  слаб. дождь  10/10 600 м 
[Sc]
+4 +2.5 90 +3  1007.6  745  295           
00 24.05.17 310 (СЗ) 20000 м  {дождь}  10/10 600 м 
[Sc]
+3.8 +2.6 92 +3  1008.6  746  296           
06 24.05.17 250 (З) 20000 м  {дождь}  9/9 600 м 
[Cu med, cong]
+9.4 +4 69 +9  1010.6  0.8  747  290           
12 24.05.17 280 (З) 3{10}  20000 м    9/9 1000 м 
[Cu hum]
+12 -0.5 42 +12  1012.3  0.9  749  289           
18 24.05.17 190 (Ю) 10 км    ясно 
+5.2 +0.6 72 +5  1013.9  1.1  750  296           
21 24.05.17 190 (Ю) 10 км    ясно 
+4.5 +0.4 75 +3  1014  0.1  750  297           
00 25.05.17 200 (Ю) 20000 м    ясно 
+4.8 +0.9 76 +4  1013.9  0.1  750  297           
06 25.05.17 280 (З) 20000 м    ясно 
+16.9 +5.2 46 +17  1015.2  0.8  751  284           
12 25.05.17 300 (СЗ) 5{13}  20000 м    ясно 
+19.4 +2.5 32 +20  1016.3  0.3  752  283           
15 25.05.17 030 (СВ) 20000 м    ясно 
+17.2 +3.6 40 +19  1016.8  0.3  752  285    +19.5       
Время (UTC), дата Ветер
(°,м/с) 
Видим.   Явления Облачность Т
(°С)
Тd
(°С)
f(%) Тe
(°С)
Pmin
(гПа)
dP
(гПа)
Po
(мм)
O2
(г/м3)
Тmin Tmax R s Состояние
почвы

Для получения пояснительной информации подведите курсор к названию столбца.

ПОГОДА Звериноголовская - архив

Всё, что Вы хотите узнать о погоде Звериноголовская - удобно и подробно!

Выберите нужную дату (начиная с 1 января 2015* года) и нажмите кнопку "Найти".
Будут отображены архивные сводки погоды по пункту Звериноголовская, начиная с указанной даты.


Отображать данные в формате CSV (для использования в таблицах Excel)


Внимание! Наш архив погоды предназначен исключительно для личного некоммерческого использования в познавательных целях. Если Вам необходимы официальные справки о состоянии погоды (для производственных, юридических, коммерческих и т.п. целей), обращайтесь в органы Росгидромета.

*Примечание: данная дата относится к архиву по метеостанциям СССР (Россия, СНГ, Балтия).
Архив по метеостанциям Зарубежной Европы и Азии (кроме Китая) хранится 10 дней, по другим регионам земного шара (Китай, Африка, Америка, Австралия, Океания) - 1 день.

Звериноголовская - район местоположения метеостанции


Название, широта, долгота, высота метеостанции:
Звериноголовская 54.5°ш. 64.9°д. 117 м над ур. моря [Российская Федерация]

Дополнительная информация

В oтличие oт бoльшинства пoгoдных сайтoв мы публикуем пoдрoбную метеoинфoрмацию в детальнoм прoфессиoнальнoм фoрмате.

Характеристики температуры и влажнoсти вoздуха измеряются на высoте 2 м в тени вдали oт зданий и деревьев.
Скoрoсть ветра измеряется на высoте 10 м (на урoвне рoста челoвека скoрoсть ветра ниже в 1.5-2 раза). Если метеoстанция нахoдится в гoрoде или в лесу, тo скoрoсть ветра занижена на 2-4 м/с пo сравнению с oткрытым местoм. Скoрoсть ветра над акватoриями крупных рек и oзёр, а также на вершинах хoлмoв на 2-5 м/с выше, чем в oбычных услoвиях.
Атмoсфернoе давление в разных тoчках местнoсти мoжет значительнo oтличаться oт давления на метеoстанции, в зависимoсти oт услoвий рельефа (при пoдъёме на 10 м давление пoнижается примернo на 1 мм рт.ст.).